Zurück zum Katalog

STARLINK-37284

AktivKommunikationSSO
NORAD 68623·PAYLOAD·🇺🇸 United States

Gestartet Apr 5, 2026 von Vandenberg Space Force Base

Loading…

Nächste Überflüge (nächste 24 Stunden)

TLE

AktuellSource: CelesTrak SupGP

Epoche: Sep 14, 2026, 23:30 UTC

1 68623C 26073X   26257.97965278  .00071863  00000+0  22308-2 0  2576
2 68623  97.2849  96.0327 0001764  94.7175 199.1649 15.33401783    19

Verfolge STARLINK-37284 in Echtzeit mit AllMySat

Download on the App Store